Location: Unspecified
(0.0000°N, 0.0000°E)
Time: 16:01:25
(UTC+00:00)

CZ-3C DEB - Pass Details

Date: 06 March 2026
Orbit: 640 x 36740 km, 20.7° (Epoch: 1 May)

Event Time Altitude Azimuth Distance (km) Brightness Sun altitude
Exits shadow 02:46:58 24° 57° (ENE) 2,704 ? -50.7°
Drops below altitude 10° 02:52:37 10° 63° (ENE) 5,336 ? -49.4°
Sets 03:01:38 0° 66° (ENE) 9,132 ? -47.1°
